www.pogodaiklimat.ru

Погода и климат >> Архив погоды >> Мадагаскар >> Antsiranana


ПОГОДА в Antsiranana

  • Прогноз погоды в Antsiranana
  • Монитор погоды в Antsiranana
  • Климат города

АРХИВ ПОГОДЫ в Antsiranana

Время (UTC), дата Ветер
(напр.,м/с)
 
Видим.   Явления Облачность Т
(С)
Тd
(С)
f
(%)
Тe
(С)
Тes
(С)
Комфортность P
(гПа)
Po
(гПа)
Тmin
(С)
Tmax
(С)
R
(мм)
R24
(мм)
S
(см)
03 11.10 ЮВ 5 30 км в посл. час дождь 8/8 600 м
[Cu Sc]
+21.0 +19.4 91 +26 +26 душно 1015.3 1003.3 2
06 11.10 ЮВ 11 30 км осадки на расстоянии {дождь} 8/8 600 м
[Cu Sc]
+24.4 +19.5 74 +30 +30 очень
душно
1017.0 1003.0 +21.2 +31.5 2
09 11.10 ЮВ 11 40 км 6/6 600 м
[Cu Sc]
+28.6 +17.5 51 +33 +33 очень
душно
1015.0 1003.0
12 11.10 ЮВ 9 40 км 5/5 600 м
[Cu Sc]
+28.4 +17.1 50 +32 +33 душно 1013.2 1001.3
15 11.10 ЮВ 8 30 км 5/5 600 м
[Cu Sc]
+24.6 +17.6 65 +29 +29 душно 1014.6 1002.6 +29.8
18 11.10 ЮВ 6 30 км 5/5 600 м
[Cu Sc]
+23.6 +18.3 72 +28 +28 душно 1015.6 1003.6 +29.8
00 12.10 ЮВ 6 30 км 5/5 600 м
[Cu Sc]
+21.6 +18.8 84 +26 +26 душно 1013.5 1001.6
03 12.10 ЮВ 6 40 км 4/4 600 м
[Cu Sc]
+22.2 +18.4 79 +27 +27 душно 1014.6 1002.6
06 12.10 ЮВ 6 40 км 4/4 600 м
[Cu Sc]
+26.5 +17.5 58 +31 +34 душно 1015.5 1003.6 +21.5 +29.8
09 12.10 ЮВ 10 40 км 4/4 600 м
[Cu hum Ci sp]
+29.3 +16.1 45 +32 +33 душно 1014.4 1002.5
12 12.10 ЮВ 11
{16}
40 км 3/3 600 м
[Cu hum Ci sp]
+28.5 +15.6 46 +32 +32 душно 1012.6 1000.7
15 12.10 ЮВ 8 30 км 3/3 600 м
[Cu Sc Ci sp]
+24.6 +17.3 64 +29 +29 душно 1013.2 1001.2 +30.2
18 12.10 ЮВ 9 30 км 1/1 600 м
[Cu Sc]
+23.5 +18.0 71 +28 +28 душно 1014.9 1002.9 +30.2
00 13.10 ЮВ 6 30 км 3/3 600 м
[Cu Sc]
+21.9 +18.3 80 +27 +27 душно 1014.2 1002.2
03 13.10 ЮВ 7 30 км 4/4 600 м
[Cu Sc Ci sp]
+22.0 +18.2 79 +27 +27 душно 1014.7 1002.7
09 13.10 ЮВ 8 40 км 3/3 600 м
[Cu Sc]
+30.5 +16.9 44 +34 +37 очень
душно
1013.8 1001.9
12 13.10 ЮВ 8 40 км 10/3 600 м
[Cu Sc]
+29.0 +15.3 43 +32 +32 душно 1012.2 1000.3
15 13.10 ЮВ 6 30 км 3/3 600 м
[Cu Sc]
+25.0 +16.9 61 +29 +29 душно 1014.1 1002.1 +31.5
18 13.10 ЮВ 6 30 км 3/3 600 м
[Cu Sc]
+23.5 +19.7 79 +29 +29 душно 1015.5 1003.5 +31.5
00 14.10 ЮВ 5 30 км 1/1 600 м
[Cu Sc]
+21.8 +18.1 80 +27 +27 душно 1014.5 1002.5
03 14.10 ЮВ 3 40 км 1/1 600 м
[Cu Sc]
+21.5 +17.5 78 +26 +26 душно 1015.0 1003.0
06 14.10 ЮВ 5 40 км 6/6 600 м
[Cu Sc]
+26.0 +19.1 66 +31 +34 очень
душно
1016.7 1004.7 +21.5 +31.5
09 14.10 ЮВ 6 40 км 5/5 600 м
[Cu Sc]
+30.6 +16.4 42 +34 +38 очень
душно
1014.9 1003.0
12 14.10 ЮВ 8 40 км 4/4 600 м
[Cu Sc Ci sp]
+30.2 +17.5 47 +34 +35 очень
душно
1012.5 1000.6
15 14.10 ЮВ 5 30 км 3/3 600 м
[Cu Sc Ci sp]
+26.0 +16.4 55 +29 +29 душно 1013.1 1001.1 +31.2
18 14.10 ЮВ 6 30 км 1/1 600 м
[Cu Sc]
+23.6 +13.7 54 +26 +26 жарко 1015.2 1003.2 +31.2
00 15.10 ЮВ 5 30 км 1/1 600 м
[Cu Sc]
+22.2 +17.1 73 +27 +27 душно 1014.0 1002.1
03 15.10 ЮВ 5 40 км 3/1 600 м
[Cu Sc Ci sp]
+22.6 +17.1 71 +27 +27 душно 1015.0 1003.0
06 15.10 ЮВ 8 40 км 3/3 600 м
[Cu hum Ci sp]
+28.5 +17.0 50 +32 +34 душно 1015.8 1003.9 +22.0 +31.2
09 15.10 ЮВ 7 40 км 1/1 600 м
[Cu hum Ci sp]
+31.5 +16.6 41 +35 +40 очень
душно
1013.9 1002.1
12 15.10 ЮВ 8 40 км 3/3 600 м
[Cu Sc Ci sp]
+30.2 +16.4 43 +33 +34 душно 1013.0 1001.1
15 15.10 ЮВ 8 30 км 4/4 600 м
[Cu Sc Ci sp]
+25.5 +16.7 58 +29 +29 душно 1014.7 1002.7 +32.2
18 15.10 ЮВ 8 30 км 4/4 600 м
[Cu Sc]
+24.3 +19.5 75 +30 +30 очень
душно
1015.9 1004.0 +32.2
00 16.10 ЮВ 6 30 км 4/4 600 м
[Cu Sc]
+22.6 +17.5 73 +28 +28 душно 1014.8 1002.9
03 16.10 Ю 7 40 км 4/4 600 м
[Cu Sc Ci sp]
+21.8 +18.0 79 +26 +26 душно 1015.1 1003.1
06 16.10 ЮВ 6 40 км 6/6 600 м
[Cu Sc]
+27.5 +18.2 57 +32 +34 очень
душно
1016.5 1004.5 +22.0 +32.2
09 16.10 ЮВ 7 40 км 4/4 600 м
[Cu Sc]
+31.6 +16.5 40 +35 +38 очень
душно
1014.8 1002.9
12 16.10 ЮВ 6 40 км 3/1 600 м
[Cu Sc]
+30.5 +16.3 42 +34 +37 очень
душно
1013.5 1001.6
15 16.10 ЮВ 6 30 км 1/1 600 м
[Cu Sc Ci sp]
+25.4 +16.8 59 +29 +29 душно 1015.1 1003.1 +32.0
18 16.10 штиль 0 30 км 1/1 600 м
[Cu Sc]
+23.0 +19.9 83 +30 +30 очень
душно
1016.3 1004.3 +32.0
00 17.10 штиль 0 30 км 1/1 600 м
[Cu Sc]
+22.6 +19.8 84 +29 +29 очень
душно
1014.9 1002.9
03 17.10 штиль 0 40 км 1/1 600 м
[Cu Sc]
+22.5 +19.4 83 +29 +29 очень
душно
1015.3 1003.3
06 17.10 ЮВ 5 40 км 5/5 600 м
[Cu Sc]
+28.6 +18.8 55 +34 +37 очень
душно
1016.0 1004.1 +22.4 +32.0
09 17.10 ЮВ 4 40 км 3/3 600 м
[Cu Sc]
+31.0 +18.1 46 +35 +46 очень
душно
1013.3 1001.4
12 17.10 В 3 40 км 1/1 600 м
[Cu Sc]
+30.2 +17.1 45 +34 +41 очень
душно
1011.5 999.6
15 17.10 ЮВ 4 30 км 4/4 600 м
[Cu Sc]
+25.2 +20.0 73 +31 +31 очень
душно
1013.1 1001.1 +31.2
18 17.10 ЮВ 3 30 км 4/4 600 м
[Cu Sc]
+24.0 +20.5 81 +30 +30 очень
душно
1015.0 1003.1 +31.2

 

Местоположение метеостанции Antsiranana (Мадагаскар): широта -12.35 долгота 49.30 высота над уровнем моря 105 м.

В архиве по умолчанию представлена погода в Antsiranana за последнюю неделю. Архивные данные за месяц целиком и за предыдущие месяцы, начиная с января 2011 года, Вы можете получить, выбрав интересующий диапазон дат из раскрывающегося списка и нажав кнопку "Ввод!".


*Определитесь, кто Вы:
робот инопланетянин человек

Внимание! Время в таблицах - всемирное. Для получения местного времени необходимо прибавить поправку, которая в Antsiranana равна 3 ч.

Смотрите также архив погоды в соседних городах и на ближайших метеорологических станциях:

Погода в Fascene (Мадагаскар) (151 км)
Погода в Sambava (Мадагаскар) (234 км)
Погода в Glorieuses Island (Реюньон) (247 км)
Погода в Antalaha (Мадагаскар) (300 км)
Погода в Antsohihy (Мадагаскар) (316 км)
Погода в Dzaoudzi (Коморские Острова) (439 км)
Погода в Mahajanga (Мадагаскар) (487 км)
Погода в Nosy Boraha (Мадагаскар) (529 км)
Погода в Ambohitsilaozana (Мадагаскар) (594 км)
Погода в Toamasina (Мадагаскар) (641 км)

Пояснения к столбцам:

Ветер - указаны скорость ветра в м/с - средняя за 10 мин, порывы в срок и между сроками (в фигурных скобках) и направление, откуда дует ветер: С - северный, СВ - северо-восточный, В - восточный, ЮВ - юго-восточный, Ю - южный, ЮЗ - юго-западный, З - западный, СЗ - северо-западный.
Видимость - горизонтальная дальность видимости в метрах или километрах. При видимости от 1 до 10 км при отсутствии осадков обычно наблюдается дымка, при ухудшении видимости до 1 км и менее - туман. В сухую погоду видимость может ухудшаться дымом, пылью или мглою.
Явления - указаны атмосферные явления, наблюдавшиеся в срок или в последний час перед сроком; фигурными скобками обозначены явления, наблюдавшиеся между сроками (за 1-3 часа до срока); квадратными скобками обозначены град или гололедные отложения с указанием их диаметра в мм.
Облачность - указаны через наклонную черту общая и нижняя облачность в баллах и высота нижней границы облаков в метрах; квадратными скобками обозначены формы облаков: Ci - перистые, Cs - перисто-слоистые, Cc - перисто-кучевые, Ac - высококучевые, As - высокослоистые, Sc - слоисто-кучевые, Ns - слоисто-дождевые, Cu - кучевые, Cb - кучево-дождевые. Подробнее классификацию облаков см. в Атласе облаков (PDF).
T - Температура воздуха - температура, измеренная на высоте 2 м над землей.
Td - Температура точки росы - температура, при понижении до которой содержащийся в воздухе водяной пар достигнет насыщения.
f - Относительная влажность воздуха - влажноcть воздуха, измеренная на высоте 2 м над землей.
Te - Эффективная температура - температура, которую ощущает одетый по сезону человек в тени. Характеристика душности погоды. При расчете учитывается влияние влажности воздуха и скорости ветра на теплоощущения человека.
Tes - Эффективная температура на солнце - температура, которую ощущает человек, с поправкой на солнечный нагрев. Характеристика знойности погоды. Зависит от высоты солнца над горизонтом, облачности и скорости ветра. Ночью, в пасмурную погоду, а также при ветре 12 м/с и более поправка равна нулю.
P - Атмосферное давление - приведенное к уровню моря атмосферное давление.
Po - Атмосферное давление - измеренное на уровне метеостанции атмосферное давление.
Tmin - Минимальная температура - минимум температуры воздуха на высоте 2 м над землей.
Tmax - Максимальная температура - максимум температуры воздуха на высоте 2 м над землей.
R - Количество осадков - Количество выпавших осадков за период времени, мм. При наведении курсора мыши на число - период времени, за который выпало указанное количество осадков.
R24 - Количество осадков - Количество выпавших осадков за 24 часа, мм.
S - Снежный покров - Высота снежного покрова, см. При наведении курсора мыши на число - состояние снежного покрова и степень покрытия местности в баллах.